Flag for Japan Weather past 2 weeks in Fukushima, Japan

Now
78 °F

Fog.


Feels Like: 81 °F
Forecast: 68 / 96 °F
Wind: 2 mph from South

Location: Wakamatsu

Current Time: Aug 1, 2015 at 1:34:59 AM

Latest Report: Aug 1, 2015 at 12:00 AM


Visibility: 5 mi

Pressure: 29.84 "Hg

Humidity: 90%

Dew point: 75 °F

Location of FukushimaLocation

Historic Weather in Fukushima — Graph

°F

Fukushima temperature yesterday

Maximum temperature yesterday: 93 °F (at 3:00 PM)
Minimum temperature yesterday: 77 °F (at 3:00 AM)
Average temperature yesterday: 84 °F

Past Weeks' High & Low Weather Summary

 TemperatureHumidityPressure
High96 °F (Jul 21, 2:00 PM)100% (Jul 17, 3:00 AM)29.99 "Hg (Jul 17, 3:00 AM)
Low69 °F (Jul 26, 5:00 AM)43% (Jul 22, 2:00 PM)29.62 "Hg (Jul 17, 2:00 PM)
Average80 °F82%29.82 "Hg
* Reported Midnight between Jul 16 and Jul 17 — Midnight between Jul 31 and Aug 1, Fukushima, Weather by CustomWeather, © 2015

Note: Actual official high and low records may vary slightly from our data, if they occured in-between our weather recording intervals... More about our weather records

Advertising

Fukushima weather history for previous 24 hours

 ConditionsComfort  
Time TempWeatherWind HumidityBarometerVisibility
12:00 AM
Sat, Aug 1
78 °FFog.2 mph90%29.84 "Hg5 mi
11:00 PM
Fri, Jul 31
81 °FWarm.2 mph82%29.85 "Hg6 mi
10:00 PM82 °FWarm.2 mph75%29.84 "Hg7 mi
9:00 PM83 °FWarm.2 mph73%29.84 "Hg7 mi
8:00 PM83 °FWarm.5 mph77%29.83 "Hg7 mi
7:00 PM85 °FWarm.5 mph69%29.80 "Hg9 mi
6:00 PM89 °FHot.6 mph62%29.78 "Hg9 mi
5:00 PM91 °FHot.9 mph55%29.75 "Hg11 mi
4:00 PM93 °FHot.8 mph52%29.75 "Hg12 mi
3:00 PM93 °FHot.7 mph51%29.76 "Hg11 mi
2:00 PM92 °FHot.5 mph53%29.76 "Hg9 mi
1:00 PM91 °FHot.5 mph56%29.78 "Hg9 mi
11:00 AM89 °FHot.3 mph63%29.81 "Hg8 mi
10:00 AM86 °FWarm.3 mph67%29.82 "Hg8 mi
9:00 AM84 °FWarm.5 mph72%29.83 "Hg7 mi
8:00 AM81 °FFog.3 mph81%29.84 "Hg6 mi
7:00 AM79 °FFog.1 mph89%29.84 "Hg6 mi
5:00 AM77 °FWarm.1 mph93%29.83 "Hg5 mi
4:00 AM77 °FLight rain. Cloudy.2 mph93%29.83 "Hg5 mi
3:00 AM77 °FFog.1 mph94%29.82 "Hg4 mi
2:00 AM78 °FFog.1 mph92%29.82 "Hg5 mi
1:00 AM78 °FFog.2 mph91%29.81 "Hg5 mi
Weather by CustomWeather, © 2015

See weather overviewHow to use our weather pages